Location: Dugenta
(41.1333°N, 14.4500°E)
Time: 13:25:54
(UTC+00:00)

APEX - Pass Details

Date: 03 March 2021
Orbit: 332 x 1081 km, 69.9° (Epoch: 14 April)

Event Time Altitude Azimuth Distance (km) Brightness Sun altitude
Rises 16:07:43 0° 360° (N) 2,213 6.3 8.0°
Enters shadow 16:21:13 -15° 127° (SE) 4,502 7.6 5.5°
Exits shadow 16:35:41 -44° 144° (SE) 9,705 9.4 2.8°
Reaches altitude 10° 17:50:15 10° 319° (NW) 1,287 5.8 -11.1°
Maximum altitude 17:52:49 36° 249° (WSW) 546 4.0 -11.6°
Drops below altitude 10° 17:55:22 10° 180° (S) 1,275 5.2 -12.1°
Sets 17:57:25 0° 171° (S) 2,146 6.2 -12.5°
